Content
SEND FEEDBACK

Daily
Averages
Monthly
Summary
United States of America

POINT HOPE, ALASKA


Home > North America > United States > Alaska
Elevation: 1 meter     Latitude: 68 52N     Longitude: 166 07W

WEATHER
 
SELECT A DAY
Number of Records: 224,686;   Date Range: 1/1/95 - 7/20/14
 
SHARE

PRINT THIS DATA

[ ← Previous Day ]
WEATHER ALMANAC - 31 JANUARY, 2013
[ Next Day → ]
[ °F ]   °C
Weather ElementAverageHighLow
Temperature-24.2 °C-23 °C (7:40 pm)-25.5 °C (1:55 am)
Dewpoint-27 °C-25.9 °C (8:55 pm)-28.3 °C (1:55 am)
Humidity78.1 %80 % (5:55 am)77 % (11:55 am)
Barometer1020 hPa1023.4 hPa (11:40 pm)1017.9 hPa (5:55 am)

Weather ElementAverage
Weather ElementTotal
Precipitation---
Heating Degree Days42.6 (Base 18.3)
Averaged from 27 records on 31 January, 2013
WEATHER CONDITIONS BREAKOUT
WIND DIRECTION BREAKOUT
WEATHER BY HOUR - 31 JANUARY, 2013
[ °F ]   °C
Local TimeTemperatureDewpointHumidityBarometerVisibilityWind DirectionWind SpeedGust SpeedPrecipitationEventsConditions
1:55 AM-25.5 °C-28.3 °C78 %1018.3 hPa16.1 kmNorthClear
2:55 AM-25.4 °C-28.2 °C78 %1018.3 hPa16.1 kmNorthClear
3:55 AM-25.3 °C-28.1 °C78 %1018.3 hPa16.1 kmNorthClear
4:55 AM-25.3 °C-28.1 °C78 %1018.3 hPa16.1 kmNorthClear
5:55 AM-25.1 °C-27.7 °C80 %1017.9 hPa16.1 kmNorthClear
6:55 AM-24.9 °C-27.5 °C80 %1018.3 hPa16.1 kmNorthClear
7:55 AM-24.7 °C-27.3 °C80 %1018.3 hPa16.1 kmNorthClear
8:55 AM-24.6 °C-27.5 °C78 %1018.3 hPa16.1 kmNorthClear
9:55 AM-24.6 °C-27.3 °C79 %1018.6 hPa16.1 kmNorthPartly Cloudy
10:55 AM-24.5 °C-27.4 °C78 %1019 hPa16.1 kmNorthClear
11:55 AM-24.5 °C-27.5 °C77 %1019 hPa16.1 kmNorthClear
12:55 PM-24.5 °C-27.4 °C78 %1019.3 hPa16.1 kmNorthClear
1:55 PM-24.3 °C-27.3 °C77 %1020 hPa16.1 kmNorthClear
2:55 PM-24.1 °C-26.9 °C78 %1020 hPa16.1 kmNorthClear
3:55 PM-23.9 °C-26.6 °C79 %1020.3 hPa16.1 kmNorthClear
4:55 PM-23.6 °C-26.5 °C78 %1020.3 hPa16.1 kmNorthClear
5:55 PM-23.4 °C-26.3 °C78 %1020.7 hPa16.1 kmNorthPartly Cloudy
6:55 PM-23.4 °C-26.3 °C78 %1021 hPa16.1 kmNorthPartly Cloudy
7:40 PM-23 °C-26 °C77 %1021.3 hPa16.1 kmNorthSnowLight Snow Showers
7:55 PM-23.4 °C-26.1 °C79 %1021.3 hPa16.1 kmNorthSnowLight Snow Showers
8:20 PM-23 °C-26 °C77 %1021.7 hPa16.1 kmNorthPartly Cloudy
8:40 PM-23 °C-26 °C77 %1021.7 hPa16.1 kmNorthSnowLight Snow Showers
8:55 PM-23 °C-25.9 °C78 %1022 hPa9.7 kmNorthSnowLight Snow Showers
9:55 PM-23.2 °C-26 °C78 %1022.4 hPa11.3 kmNorthSnowLight Snow
10:55 PM-23.5 °C-26.4 °C78 %1022.7 hPa12.9 kmNorthSnowLight Snow
11:40 PM-24 °C-27 °C77 %1023.4 hPa16.1 kmNorthPartly Cloudy
11:55 PM-24.3 °C-27.1 °C78 %1023.4 hPa16.1 kmNorthPartly Cloudy
Hourly data recorded from PALU, located 0 kilometers away from Point Hope, Alaska







STORIES FROM OUR PARTNERS